Regional Weather Roundup
Issued by NWS

Home | Current Version | Previous Version | Graphics & Text | Print | Product List | Glossary On
Versions: 1 2 3 4 5 6 7 8 9 10 11 12 13 14 15 16 17 18 19 20 21 22 23 24 25 26 27 28 29 30 31 32 33 34 35 36 37 38 39 40 41 42 43 44 45 46 47 48 49 50
000
ASUS45 KCYS 031510
RWRWY

WYOMING REGIONAL WEATHER ROUNDUP
NATIONAL WEATHER SERVICE CHEYENNE WY
900 AM MDT SUN MAY 03 2015

NOTE:  "FAIR" INDICATES FEW OR NO CLOUDS BELOW 12,000 FEET
WITH NO SIGNIFICANT WEATHER AND/OR OBSTRUCTIONS TO VISIBILITY.

WYZ001-031600-
YELLOWSTONE NATIONAL PARK

CITY           SKY/WX    TMP DP  RH WIND       PRES   REMARKS
LK YELLOWSTONE   N/A     40  26  57 E3        30.07R
W YELLOWSTONE  NOT AVBL

$$
WYZ002>013-054>058-071-098>099-031600-
NORTHERN WYOMING

CITY           SKY/WX    TMP DP  RH WIND       PRES   REMARKS
JACKSON        PTSUNNY   52  37  58 CALM      30.03R
CODY           FAIR      48  34  57 N13       30.01R
GREYBULL       FAIR      54  32  43 NW17      29.97R
WORLAND        FAIR      53  34  48 N9        29.99R
SHERIDAN       FAIR      51  37  58 N7        30.04R
BUFFALO        FAIR      53  36  52 N9        30.04R
GILLETTE       FAIR      56  36  47 NE8       29.99R
HULETT         FAIR      55  34  44 NE14      30.01R
NEWCASTLE      FAIR      61  32  33 NE14G22   29.93R

$$
WYZ014>020-022>026-101>103-031600-
CENTRAL WYOMING

CITY           SKY/WX    TMP DP  RH WIND       PRES   REMARKS
BIG PINEY      PTSUNNY   50  33  52 NE5       30.06S
PINEDALE       PTSUNNY   46  34  61 CALM      30.08R
DUBOIS         CLOUDY    46  32  57 W21G28    30.04F
LANDER         FAIR      56  31  38 NW12      29.98R
RIVERTON       FAIR      58  31  35 NE15      29.99R
CASPER         FAIR      54  32  43 VRB6      30.02R
DOUGLAS        FAIR      55  34  45 NW12      29.99R

$$
WYZ021-027>030-104>119-031600-
SOUTHERN WYOMING

CITY           SKY/WX    TMP DP  RH WIND       PRES   REMARKS
EVANSTON       FAIR      53  38  56 S10       30.05S
KEMMERER       PTSUNNY   48  37  66 SE5       30.07S
FORT BRIDGER   MOSUNNY   52  41  66 N3        30.09S
ROCK SPRINGS   CLOUDY    47  41  80 W3        30.06R
DIXON          FAIR      54  36  50 CALM      30.07S
RAWLINS        CLOUDY    57  34  41 W17       30.04R
SARATOGA       FAIR      55  34  44 SE6       30.06S
LARAMIE        FAIR      53  33  46 E5        30.05R
CHEYENNE       FAIR      63  33  32 NW15G22   29.99R
TORRINGTON     FAIR      62  37  39 N16G22    29.92R
PINE BLUFFS    FAIR      59  43  55 N5        29.96R

$$


USA.gov is the U.S. government's official web portal to all federal, state and local government web resources and services.